TimeEST,TemperatureF,Dew PointF,Humidity,Sea Level PressureIn,VisibilityMPH,Wind Direction,Wind SpeedMPH,Gust SpeedMPH,PrecipitationIn,Events,Conditions,WindDirDegrees,DateUTC
12:54 AM,54.0,46.0,75,30.02,10.0,SSW,9.2,-,N/A,,Clear,210,2013-11-07 05:54:00
1:54 AM,53.1,46.0,77,30.00,10.0,SSW,8.1,-,N/A,,Clear,210,2013-11-07 06:54:00
2:54 AM,53.1,46.9,80,29.96,10.0,SSW,5.8,-,N/A,,Clear,200,2013-11-07 07:54:00
3:54 AM,54.0,48.0,80,29.94,10.0,South,4.6,-,N/A,,Mostly Cloudy,190,2013-11-07 08:54:00
4:36 AM,55.4,50.0,82,29.91,10.0,South,6.9,17.3,N/A,,Partly Cloudy,190,2013-11-07 09:36:00
4:54 AM,55.9,50.0,80,29.90,10.0,SSW,9.2,17.3,N/A,,Partly Cloudy,200,2013-11-07 09:54:00
5:18 AM,57.2,51.8,82,29.88,10.0,SSW,9.2,-,N/A,,Mostly Cloudy,200,2013-11-07 10:18:00
5:54 AM,57.9,52.0,81,29.86,10.0,SSW,6.9,-,N/A,,Overcast,200,2013-11-07 10:54:00
6:43 AM,59.0,53.6,82,29.84,10.0,South,6.9,-,N/A,,Overcast,190,2013-11-07 11:43:00
6:54 AM,60.1,53.1,78,29.83,10.0,South,8.1,-,N/A,,Overcast,190,2013-11-07 11:54:00
7:54 AM,63.0,55.0,75,29.82,10.0,SSW,11.5,20.7,N/A,,Mostly Cloudy,200,2013-11-07 12:54:00
8:54 AM,64.9,55.0,70,29.79,10.0,SSW,8.1,24.2,N/A,,Mostly Cloudy,210,2013-11-07 13:54:00
9:37 AM,64.4,53.6,68,29.77,10.0,SW,15.0,23.0,N/A,,Overcast,220,2013-11-07 14:37:00
9:54 AM,64.9,53.1,65,29.78,10.0,SW,15.0,24.2,N/A,,Overcast,230,2013-11-07 14:54:00
10:54 AM,66.0,52.0,60,29.75,10.0,WSW,15.0,24.2,N/A,,Overcast,240,2013-11-07 15:54:00
11:54 AM,62.1,54.0,75,29.73,10.0,WSW,10.4,-,0.00,,Overcast,240,2013-11-07 16:54:00
12:54 PM,61.0,53.1,75,29.70,10.0,SW,6.9,-,0.01,Rain,Light Rain,230,2013-11-07 17:54:00
1:27 PM,60.8,53.6,77,29.70,8.0,WSW,9.2,-,0.02,Rain,Light Rain,240,2013-11-07 18:27:00
1:54 PM,60.1,54.0,80,29.69,7.0,West,4.6,-,0.05,Rain,Light Rain,280,2013-11-07 18:54:00
2:10 PM,57.2,51.8,82,29.67,8.0,WNW,5.8,-,0.01,Rain,Light Rain,290,2013-11-07 19:10:00
2:54 PM,57.9,51.1,78,29.71,10.0,West,9.2,-,0.01,Rain,Light Rain,260,2013-11-07 19:54:00
3:54 PM,55.0,48.9,80,29.73,9.0,West,8.1,-,0.02,Rain,Light Rain,270,2013-11-07 20:54:00
4:54 PM,52.0,46.9,83,29.73,10.0,West,6.9,-,0.02,Rain,Light Rain,260,2013-11-07 21:54:00
5:54 PM,51.1,44.1,77,29.74,10.0,West,8.1,-,0.00,,Overcast,260,2013-11-07 22:54:00
6:54 PM,51.1,41.0,68,29.76,10.0,NNW,15.0,24.2,N/A,,Scattered Clouds,330,2013-11-07 23:54:00
7:02 PM,50.0,39.2,66,29.77,10.0,NW,16.1,27.6,N/A,,Mostly Cloudy,320,2013-11-08 00:02:00
7:11 PM,50.0,39.2,66,29.78,10.0,NW,13.8,27.6,N/A,,Mostly Cloudy,320,2013-11-08 00:11:00
7:54 PM,48.9,37.9,66,29.79,10.0,NNW,10.4,-,N/A,,Overcast,340,2013-11-08 00:54:00
8:54 PM,46.0,32.0,58,29.81,10.0,NW,6.9,18.4,N/A,,Clear,320,2013-11-08 01:54:00
9:54 PM,45.0,32.0,60,29.82,10.0,WNW,9.2,-,N/A,,Overcast,300,2013-11-08 02:54:00
10:54 PM,44.1,32.0,63,29.82,10.0,WNW,11.5,-,N/A,,Overcast,290,2013-11-08 03:54:00
11:54 PM,39.9,32.0,73,29.83,10.0,West,4.6,-,N/A,,Clear,280,2013-11-08 04:54:00